FW8108 Weather Reports


time (UTC)temp
C
wind
direction
speed
KPH
gust
KPH
rain 1hr
cm
rain 24hr
cm
rain mn
cm
humidity
%
barometer
mb
20260509113305 -1 195 0.0 0.0 0.00 0.00 0.00 95 1013.9
20260509112804 -1 195 0.0 0.0 0.00 0.00 0.00 96 1013.7
20260509111804 -2 195 0.0 0.0 0.00 0.00 0.00 98 1013.7
20260509111304 -2 195 0.0 0.0 0.00 0.00 0.00 98 1013.8
20260509110804 -2 196 0.0 0.0 0.00 0.00 0.00 98 1013.8
20260509110304 -2 196 0.0 0.0 0.00 0.00 0.00 98 1013.9
20260509105804 -2 196 0.0 0.0 0.00 0.00 0.00 98 1013.8
20260509105306 -2 196 0.0 0.0 0.00 0.00 0.00 98 1013.7
20260509104803 -2 196 0.0 0.0 0.00 0.00 0.00 98 1013.6
20260509104304 -2 196 0.0 0.0 0.00 0.00 0.00 98 1013.6
20260509103303 -3 196 0.0 0.0 0.00 0.00 0.00 98 1013.6
20260509102803 -3 196 0.0 0.0 0.00 0.00 0.00 97 1013.8
20260509102305 -2 196 0.0 0.0 0.00 0.00 0.00 97 1013.7
20260509101803 -2 196 0.0 0.0 0.00 0.00 0.00 97 1013.5
20260509100803 -3 196 0.0 0.0 0.00 0.00 0.00 97 1013.7
20260509100304 -2 196 0.0 0.0 0.00 0.00 0.00 97 1013.8
20260509095804 -2 196 0.0 0.0 0.00 0.00 0.00 97 1013.5
20260509095306 -2 196 0.0 0.0 0.00 0.00 0.00 97 1013.5
20260509094804 -2 196 0.0 0.0 0.00 0.00 0.00 97 1013.3
20260509094304 -3 196 0.0 0.0 0.00 0.00 0.00 98 1013.3
20260509093804 -2 196 0.0 0.0 0.00 0.00 0.00 97 1013.2
20260509093304 -2 196 0.0 0.0 0.00 0.00 0.00 98 1013.1
20260509092803 -3 195 0.0 0.0 0.00 0.00 0.00 98 1013.1
20260509092305 -3 196 0.0 0.0 0.00 0.00 0.00 97 1012.8
20260509091804 -2 196 0.0 0.0 0.00 0.00 0.00 97 1013.0
20260509091303 -3 195 0.0 0.0 0.00 0.00 0.00 97 1012.9
20260509090804 -2 196 0.0 0.0 0.00 0.00 0.00 97 1012.9
20260509090303 -2 195 0.0 0.0 0.00 0.00 0.00 97 1013.0
20260509085804 -2 195 0.0 0.0 0.00 0.00 0.00 97 1012.9
20260509084804 -2 195 0.0 0.0 0.00 0.00 0.00 97 1013.1
20260509084304 -2 195 0.0 0.0 0.00 0.00 0.00 97 1013.1
20260509083804 -3 195 0.0 0.0 0.00 0.00 0.00 97 1013.1
20260509083304 -2 195 0.0 0.0 0.00 0.00 0.00 96 1013.0
20260509082804 -2 195 0.0 0.0 0.00 0.00 0.00 96 1013.1
20260509082306 -2 195 0.0 0.0 0.00 0.00 0.00 96 1013.0
20260509080804 -2 195 0.0 0.0 0.00 0.00 0.00 96 1013.1
20260509075803 -2 195 0.0 0.0 0.00 0.00 0.00 96 1013.2
20260509075306 -2 195 0.0 0.0 0.00 0.00 0.00 95 1013.1
20260509074804 -2 195 0.0 0.0 0.00 0.00 0.00 95 1013.2
20260509073804 -2 195 0.0 0.0 0.00 0.00 0.00 96 1013.0
20260509073304 -2 195 0.0 0.0 0.00 0.00 0.00 95 1013.2
20260509072804 -2 195 0.0 0.0 0.00 0.00 0.00 95 1013.1
20260509072306 -2 195 0.0 0.0 0.00 0.00 0.00 94 1013.2
20260509071804 -2 195 0.0 0.0 0.00 0.00 0.00 93 1013.0
20260509071304 -2 195 0.0 0.0 0.00 0.00 0.00 94 1013.1
20260509070804 -2 195 0.0 0.0 0.00 0.00 0.00 95 1013.2
20260509070304 -2 195 0.0 0.0 0.00 0.00 0.00 96 1013.2
20260509065306 -2 195 0.0 0.0 0.00 0.00 0.00 96 1013.3
20260509063805 -2 195 0.0 0.0 0.00 0.00 0.00 95 1013.2
20260509063303 -2 195 0.0 0.0 0.00 0.00 0.00 95 1013.1
20260509062804 -2 195 0.0 0.0 0.00 0.00 0.00 96 1013.1
20260509062306 -2 195 0.0 0.0 0.00 0.00 0.00 95 1013.1
20260509061804 -2 195 0.0 0.0 0.00 0.00 0.00 95 1013.1
20260509061304 -2 195 0.0 0.0 0.00 0.00 0.00 95 1013.3
20260509060804 -2 195 0.0 0.0 0.00 0.00 0.00 94 1013.2
20260509060304 -2 195 0.0 0.0 0.00 0.00 0.00 94 1013.2
20260509055804 -2 195 0.0 0.0 0.00 0.00 0.00 94 1013.2
20260509054804 -1 195 0.0 0.0 0.00 0.00 0.00 94 1013.0
20260509054304 -1 195 0.0 0.0 0.00 0.00 0.00 94 1013.2
20260509053805 -1 195 0.0 0.0 0.00 0.00 0.00 94 1013.0
20260509053304 -1 195 0.0 0.0 0.00 0.00 0.00 93 1013.0
20260509052804 -1 195 0.0 0.0 0.00 0.00 0.00 93 1013.0
20260509052307 -1 195 0.0 0.0 0.00 0.00 0.00 93 1013.1
20260509051304 -1 195 0.0 0.0 0.00 0.00 0.00 92 1012.9
20260509050804 -1 195 0.0 0.0 0.00 0.00 0.00 91 1013.0
20260509045804 -1 195 0.0 0.0 0.00 0.00 0.00 91 1013.0
20260509045306 -1 195 0.0 0.0 0.00 0.00 0.00 90 1013.0
20260509044804 -1 195 0.0 0.0 0.00 0.00 0.00 90 1013.0
20260509044304 0 195 0.0 0.0 0.00 0.00 0.00 90 1012.9
20260509043804 0 195 0.0 0.0 0.00 0.00 0.00 90 1013.1
20260509043304 0 195 0.0 0.0 0.00 0.00 0.00 89 1013.0
20260509042804 0 195 0.0 0.0 0.00 0.00 0.00 88 1012.9
20260509041804 0 195 0.0 0.0 0.00 0.00 0.00 87 1013.0
20260509040824 0 195 0.0 0.0 0.00 0.00 0.00 87 1012.8
20260509040304 0 195 0.0 0.0 0.00 0.00 0.00 86 1012.7
20260509035804 0 195 0.0 0.0 0.00 0.00 0.00 85 1012.7
20260509034804 0 195 0.0 0.0 0.00 0.00 0.00 83 1012.8
20260509034304 0 195 0.0 0.0 0.00 0.00 0.00 83 1012.7
20260509032804 1 195 0.0 0.0 0.00 0.00 0.00 79 1012.5
20260509032306 1 195 0.0 0.0 0.00 0.00 0.00 78 1012.6
20260509031804 1 195 0.0 1.6 0.00 0.00 0.00 79 1012.6
20260509031304 1 195 0.0 1.6 0.00 0.00 0.00 77 1012.4
20260509030803 1 195 1.6 1.6 0.00 0.00 0.00 76 1012.4
20260509030304 1 195 0.0 1.6 0.00 0.00 0.00 78 1012.3
20260509025306 2 195 0.0 1.6 0.00 0.00 0.00 77 1012.4
20260509024304 2 195 0.0 1.6 0.00 0.00 0.00 72 1012.2
20260509023803 2 195 1.6 1.6 0.00 0.00 0.00 70 1012.1
20260509023304 2 195 1.6 1.6 0.00 0.00 0.00 73 1012.2
20260509022804 2 195 0.0 1.6 0.00 0.00 0.00 72 1012.2
20260509022306 2 195 0.0 1.6 0.00 0.00 0.00 71 1012.1
20260509021804 3 195 0.0 1.6 0.00 0.00 0.00 71 1012.1
20260509021304 3 195 1.6 1.6 0.00 0.00 0.00 68 1012.0
20260509020803 3 195 1.6 1.6 0.00 0.00 0.00 73 1012.0
20260509020304 3 195 1.6 1.6 0.00 0.00 0.00 71 1011.9
20260509015804 3 195 0.0 0.0 0.00 0.00 0.00 72 1012.0
20260509014304 3 195 0.0 1.6 0.00 0.00 0.00 70 1011.9
20260509013805 4 195 0.0 0.0 0.00 0.00 0.00 70 1011.7
20260509012804 5 195 0.0 1.6 0.00 0.00 0.00 63 1011.6
20260509011803 5 195 1.6 1.6 0.00 0.00 0.00 62 1011.5
20260509011304 5 195 0.0 1.6 0.00 0.00 0.00 61 1011.3
20260509010803 5 195 0.0 1.6 0.00 0.00 0.00 61 1011.4
20260509010303 5 195 0.0 1.6 0.00 0.00 0.00 62 1011.2
20260509005804 5 195 0.0 0.0 0.00 0.00 0.00 63 1011.2
20260509005306 5 195 0.0 1.6 0.00 0.00 0.00 61 1011.1
20260509004804 5 195 0.0 1.6 0.00 0.00 0.00 59 1011.0
20260509004304 6 195 0.0 1.6 0.00 0.00 0.00 55 1011.0
20260509003804 6 195 1.6 1.6 0.00 0.00 0.00 56 1010.8
20260509002306 6 200 3.2 3.2 0.00 0.00 0.00 56 1010.7
20260509001304 6 225 3.2 3.2 0.00 0.00 0.00 54 1010.7
20260509000303 7 225 3.2 3.2 0.00 0.00 0.00 54 1010.7
20260508235804 7 257 1.6 3.2 0.00 0.00 0.00 53 1010.5
20260508234804 7 272 1.6 3.2 0.00 0.00 0.00 52 1010.5
20260508234304 7 272 1.6 3.2 0.00 0.00 0.00 51 1010.6
20260508233804 7 279 1.6 1.6 0.00 0.00 0.00 50 1010.5
20260508233304 8 305 0.0 0.0 0.00 0.00 0.00 48 1010.6
20260508231804 8 309 0.0 1.6 0.00 0.00 0.00 46 1010.6
20260508231304 8 309 1.6 3.2 0.00 0.00 0.00 49 1010.3
20260508230803 8 308 1.6 8.0 0.00 0.00 0.00 44 1010.4
20260508225306 8 301 1.6 4.8 0.00 0.00 0.00 46 1010.4
20260508224804 8 301 1.6 11.3 0.00 0.00 0.00 44 1010.5
20260508224304 8 315 4.8 11.3 0.00 0.00 0.00 47 1010.4
20260508223803 8 301 3.2 11.3 0.00 0.00 0.00 44 1010.4
20260508223303 8 312 3.2 11.3 0.00 0.00 0.00 45 1010.5
20260508222306 9 297 3.2 4.8 0.00 0.00 0.00 46 1010.3
20260508221804 8 325 3.2 12.9 0.00 0.00 0.00 43 1010.2
20260508221304 9 309 3.2 9.7 0.00 0.00 0.00 44 1010.4
20260508220803 9 297 3.2 12.9 0.00 0.00 0.00 45 1010.1
20260508215306 8 328 4.8 14.5 0.00 0.00 0.00 45 1010.0
20260508214804 8 287 8.0 12.9 0.00 0.00 0.00 43 1010.1
20260508214304 9 308 6.4 19.3 0.00 0.00 0.00 45 1010.1
20260508213803 9 287 4.8 11.3 0.00 0.00 0.00 44 1010.2
20260508213304 9 337 3.2 14.5 0.00 0.00 0.00 45 1010.0
20260508212804 10 328 6.4 14.5 0.00 0.00 0.00 45 1009.9
20260508212306 10 286 4.8 12.9 0.00 0.00 0.00 42 1010.2
20260508210804 9 321 4.8 19.3 0.00 0.00 0.00 44 1010.0
20260508205804 9 269 14.5 20.9 0.00 0.00 0.00 44 1010.0
20260508205306 9 295 6.4 12.9 0.00 0.00 0.00 45 1009.8
20260508204803 10 324 6.4 12.9 0.00 0.00 0.00 45 1009.9
20260508204303 9 308 6.4 19.3 0.00 0.00 0.00 47 1009.8
20260508203804 9 301 9.7 19.3 0.00 0.00 0.00 44 1009.8
20260508202804 9 303 4.8 8.0 0.00 0.00 0.00 49 1009.7
20260508202307 9 281 4.8 9.7 0.00 0.00 0.00 47 1009.8
20260508201804 8 258 4.8 16.1 0.00 0.00 0.00 47 1009.7
20260508200304 8 304 1.6 12.9 0.00 0.00 0.00 47 1009.9
20260508195804 8 311 9.7 14.5 0.00 0.00 0.00 47 1009.8
20260508195306 8 306 8.0 12.9 0.00 0.00 0.00 46 1009.7
20260508194803 9 272 4.8 12.9 0.00 0.00 0.00 46 1009.7
20260508194303 9 288 4.8 20.9 0.00 0.00 0.00 46 1009.7
20260508193805 9 316 4.8 24.1 0.00 0.00 0.00 46 1009.9
20260508192804 9 298 9.7 22.5 0.00 0.00 0.00 45 1009.7
20260508192306 10 335 8.0 16.1 0.00 0.00 0.00 46 1009.9
20260508191804 10 310 8.0 14.5 0.00 0.00 0.00 47 1009.8
20260508191303 9 298 6.4 14.5 0.00 0.00 0.00 46 1009.8
20260508190304 9 283 9.7 19.3 0.00 0.00 0.00 44 1009.8
20260508185804 8 287 9.7 19.3 0.00 0.00 0.00 48 1009.9
20260508185306 9 288 9.7 12.9 0.00 0.00 0.00 47 1009.8
20260508184303 8 296 8.0 14.5 0.00 0.00 0.00 47 1009.9
20260508183803 8 287 4.8 14.5 0.00 0.00 0.00 48 1009.9
20260508183305 8 295 4.8 14.5 0.00 0.00 0.00 47 1010.0
20260508182804 8 317 9.7 19.3 0.00 0.00 0.00 49 1010.0
20260508181804 7 291 19.3 27.4 0.00 0.00 0.00 49 1010.0
20260508181304 7 253 9.7 14.5 0.00 0.00 0.00 49 1010.1
20260508180804 7 311 9.7 16.1 0.00 0.00 0.00 50 1010.1
20260508175804 7 315 11.3 16.1 0.00 0.00 0.00 49 1010.0
20260508175306 8 304 8.0 14.5 0.00 0.00 0.00 51 1009.8
20260508174804 8 280 4.8 14.5 0.00 0.00 0.00 50 1010.1
20260508174304 8 311 4.8 8.0 0.00 0.00 0.00 52 1009.9
20260508172804 7 250 4.8 11.3 0.00 0.00 0.00 51 1009.8
20260508172307 7 278 4.8 9.7 0.00 0.00 0.00 50 1010.0
20260508171804 7 281 4.8 12.9 0.00 0.00 0.00 52 1010.0
20260508170304 7 355 9.7 19.3 0.00 0.00 0.00 51 1009.9
20260508165804 7 273 8.0 20.9 0.00 0.00 0.00 51 1010.0
20260508165306 7 306 4.8 14.5 0.00 0.00 0.00 50 1010.0
20260508164803 7 256 8.0 19.3 0.00 0.00 0.00 51 1010.0
20260508164304 7 320 11.3 20.9 0.00 0.00 0.00 50 1009.9
20260508163804 7 322 8.0 14.5 0.00 0.00 0.00 49 1009.9
20260508163304 7 292 3.2 9.7 0.00 0.00 0.00 51 1010.0
20260508162804 7 291 4.8 11.3 0.00 0.00 0.00 51 1009.9
20260508162306 7 264 4.8 19.3 0.00 0.00 0.00 50 1009.9
20260508161803 7 315 9.7 19.3 0.00 0.00 0.00 50 1009.8
20260508161304 7 255 8.0 20.9 0.00 0.00 0.00 51 1009.9
20260508160305 8 325 6.4 11.3 0.00 0.00 0.00 48 1009.6
20260508155804 8 275 3.2 11.3 0.00 0.00 0.00 49 1009.7
20260508155306 7 217 4.8 14.5 0.00 0.00 0.00 48 1009.7
20260508154804 7 275 8.0 16.1 0.00 0.00 0.00 49 1009.7
20260508154304 7 299 9.7 16.1 0.00 0.00 0.00 50 1009.8
20260508153804 7 311 8.0 16.1 0.00 0.00 0.00 51 1009.8
20260508153304 7 313 6.4 16.1 0.00 0.00 0.00 51 1009.9
20260508152306 7 308 9.7 16.1 0.00 0.00 0.00 54 1010.0
20260508151804 7 274 9.7 16.1 0.00 0.00 0.00 56 1009.9
20260508151304 6 303 6.4 24.1 0.00 0.00 0.00 58 1009.9
20260508150804 6 294 8.0 20.9 0.00 0.00 0.00 59 1009.7
20260508150304 6 353 9.7 20.9 0.00 0.00 0.00 55 1009.6
20260508145804 6 322 6.4 12.9 0.00 0.00 0.00 56 1009.9
20260508144303 6 315 8.0 22.5 0.00 0.00 0.00 59 1010.0
20260508143804 6 345 6.4 14.5 0.00 0.00 0.00 61 1010.0
20260508143304 6 291 4.8 14.5 0.00 0.00 0.00 62 1010.2
20260508142804 7 291 8.0 14.5 0.00 0.00 0.00 62 1009.9
20260508141804 6 300 8.0 16.1 0.00 0.00 0.00 64 1010.0
20260508141304 6 292 8.0 16.1 0.00 0.00 0.00 64 1010.0
20260508140304 6 340 4.8 11.3 0.00 0.00 0.00 67 1009.9
20260508135804 6 260 8.0 11.3 0.00 0.00 0.00 67 1009.9
20260508135306 5 304 4.8 14.5 0.00 0.00 0.00 67 1009.9
20260508134804 5 326 8.0 16.1 0.00 0.00 0.00 67 1009.9
20260508134304 5 288 12.9 27.4 0.00 0.00 0.00 66 1009.8
20260508133804 6 304 8.0 25.7 0.00 0.00 0.00 66 1009.9
20260508133304 6 348 8.0 25.7 0.00 0.00 0.00 68 1009.8
20260508132306 6 289 4.8 16.1 0.00 0.00 0.00 66 1009.8
20260508131804 7 288 6.4 12.9 0.00 0.00 0.00 64 1009.5
20260508131304 6 315 3.2 14.5 0.00 0.00 0.00 67 1009.5
20260508130804 6 305 4.8 14.5 0.00 0.00 0.00 70 1009.7
20260508130304 6 276 1.6 8.0 0.00 0.00 0.00 73 1009.7
20260508125306 5 254 1.6 4.8 0.00 0.00 0.00 73 1009.6
20260508124304 4 310 1.6 9.7 0.00 0.00 0.00 78 1009.6
20260508123803 3 285 3.2 9.7 0.00 0.00 0.00 77 1009.6
20260508123304 3 264 1.6 3.2 0.00 0.00 0.00 84 1009.6
20260508122804 2 320 0.0 3.2 0.00 0.00 0.00 89 1009.6
20260508122306 3 309 3.2 4.8 0.00 0.00 0.00 90 1009.6
20260508121304 2 302 1.6 3.2 0.00 0.00 0.00 93 1009.4
20260508120804 1 77 1.6 3.2 0.00 0.00 0.00 96 1009.4
20260508115803 0 304 3.2 4.8 0.00 0.00 0.00 98 1009.5
20260508114804 0 310 0.0 3.2 0.00 0.00 0.00 99 1009.5
20260508114303 0 315 1.6 1.6 0.00 0.00 0.00 99 1009.5
20260508113804 0 325 0.0 1.6 0.00 0.00 0.00 99 1009.4